Hastings (NZHS)

Aerodrome — Elev 72
New Zealand
S039.38.48.001 E176.46.00.998
Loading chart...

Current Weather

NZHS 181300Z 25005KT 20KM FEW026 BKN049 BKN120 11/09 Q1023 RMK AUTO NZNR VATSIM

Published 30 minutes ago

Airport Activity

Loading chart...
Loading chart...

Standard ATC Positions

CallsignRadio Name / Freq / Voice Room / TypeFrequencyVoice RoomType
NZOH_CTR Ohakea Control
125.100
nzoh_ctr
125.100nzoh_ctr
NZNR_TWR Napier Tower
124.800
nznr_twr
124.800nznr_twr
UNICOM NZZC UNICOM
122.800
unicom_nzzc
122.800unicom_nzzc

Charts

Ground Charts

Aerodrome (1) & (2)

Other Charts

Operational Data